THY42 LFPG-LTFM

Flight info

Callsign THY42
Flight time N/A
Altitude 37000
Route LANVI6G LANVI DCT BEGAR DCT TRA DCT GAMSA DCT UMVEG DCT BEDOX DCT NASSY DCT OKLOP DCT ETIDA T390 RILEX RILEX1A
Aircraft B38M/M-VGDW/C

Departure

Time 2026-05-04 14:06
Airport Charles de Gaulle International Airport (LFPG)

Arrival

Time N/A
Airport İstanbul Airport (LTFM)
Time Latitude Longitude Altitude Speed Heading
2026-05-04 13:44 49.01299 2.53812 355 ft 0 kts 107°
2026-05-04 13:49 49.01303 2.53793 362 ft 4 kts 106°
2026-05-04 13:49 49.01310 2.53754 360 ft 4 kts 103°
2026-05-04 13:49 49.01316 2.53714 362 ft 4 kts 99°
2026-05-04 13:49 49.01318 2.53673 361 ft 4 kts 81°
2026-05-04 13:50 49.01312 2.53645 365 ft 4 kts
2026-05-04 13:50 49.01308 2.53644 365 ft 2 kts 341°
2026-05-04 13:58 49.01342 2.53629 360 ft 5 kts 345°
2026-05-04 13:58 49.01431 2.53608 355 ft 8 kts 358°
2026-05-04 13:58 49.01492 2.53611 355 ft 9 kts
2026-05-04 13:59 49.01561 2.53606 355 ft 11 kts 354°
2026-05-04 13:59 49.01638 2.53595 359 ft 12 kts 355°
2026-05-04 13:59 49.01775 2.53512 364 ft 12 kts 279°
2026-05-04 14:00 49.01771 2.53394 360 ft 12 kts 263°
2026-05-04 14:00 49.01755 2.53119 362 ft 14 kts 265°
2026-05-04 14:00 49.01747 2.52966 357 ft 15 kts 265°
2026-05-04 14:01 49.01738 2.52799 359 ft 16 kts 265°
2026-05-04 14:01 49.01728 2.52620 363 ft 18 kts 265°
2026-05-04 14:01 49.01711 2.52229 362 ft 20 kts 265°
2026-05-04 14:02 49.01699 2.52018 357 ft 20 kts 264°
2026-05-04 14:02 49.01683 2.51800 359 ft 21 kts 265°
2026-05-04 14:02 49.01672 2.51573 362 ft 22 kts 265°
2026-05-04 14:02 49.01661 2.51351 355 ft 20 kts 271°
2026-05-04 14:03 49.01729 2.51270 355 ft 9 kts 357°
2026-05-04 14:03 49.01790 2.51267 355 ft 9 kts 359°
2026-05-04 14:03 49.01859 2.51262 355 ft 11 kts 355°
2026-05-04 14:03 49.01938 2.51253 358 ft 12 kts 359°
2026-05-04 14:04 49.02071 2.51402 356 ft 8 kts 62°
2026-05-04 14:04 49.02073 2.51456 361 ft 5 kts 92°
2026-05-04 14:04 49.02070 2.51520 355 ft 7 kts 93°
2026-05-04 14:05 49.02075 2.51605 358 ft 9 kts 84°
2026-05-04 14:05 49.02100 2.52014 360 ft 79 kts 84°
2026-05-04 14:05 49.02164 2.53230 362 ft 147 kts 85°
2026-05-04 14:06 49.02250 2.54990 364 ft 185 kts 82°
2026-05-04 14:06 49.02392 2.57100 550 ft 211 kts 83°
2026-05-04 14:06 49.02579 2.59396 839 ft 227 kts 82°
2026-05-04 14:06 49.02711 2.61701 1800 ft 210 kts 87°
2026-05-04 14:07 49.02796 2.63846 2405 ft 202 kts 87°
2026-05-04 14:07 49.02851 2.65972 2836 ft 197 kts 86°
2026-05-04 14:07 49.02944 2.68043 3434 ft 194 kts 85°
2026-05-04 14:07 49.03057 2.70080 4036 ft 191 kts 85°
2026-05-04 14:08 49.03134 2.72075 4657 ft 186 kts 91°